Overview Statistics Trail Chart Weather Telemetry Raw packets
 

This is the latest recevied weather packets stored in our database for station/object NI4CE-11. If no packets are shown the sender has not sent any weather packets the latest 10 day(s).

<< 156 157 158 159 160 >>
Time Temp. Humidity Pressure Rain* Wind** Luminosity Snow
1787719860 26.67° C 100% 1017.9 hPa 0 mm - - -
1787719769 26.67° C 100% 1017.9 hPa 0 mm - - -
1787719469 27.22° C 100% 1017.9 hPa 0 mm - - -
1787719270 26.67° C 100% 1017.9 hPa 0 mm - - -
1787719169 26.67° C 100% 1017.9 hPa 0 mm - - -
1787718868 26.67° C 100% 1018 hPa 0 mm - - -
1787718569 26.67° C 100% 1018.1 hPa 0 mm - - -
1787718269 26.67° C 100% 1018.3 hPa 0 mm - - -
1787718106 26.67° C 100% 1018.2 hPa 0 mm - - -
1787717969 26.67° C 100% 1018.2 hPa 0 mm - - -
1787717669 26.67° C 100% 1018.3 hPa 0 mm - - -
1787717369 26.11° C 100% 1018.2 hPa 0 mm - - -
1787717156 26.11° C 100% 1018.2 hPa 0 mm - - -
1787717069 26.11° C 100% 1018.2 hPa 0 mm - - -
1787716902 26.11° C 100% 1018.2 hPa 0 mm - - -
1787716769 26.11° C 100% 1018.2 hPa 0 mm - - -
1787716469 25.56° C 100% 1018.2 hPa 0 mm - - -
1787716169 25° C 100% 1018.1 hPa 0 mm - - -
1787715869 26.11° C 100% 1018.1 hPa 0 mm - - -
1787715569 26.67° C 100% 1018.1 hPa 0 mm - - -
1787715269 26.67° C 100% 1018 hPa 0 mm - - -
1787715082 27.22° C 100% 1017.8 hPa 0 mm - - -
1787714969 27.22° C 100% 1017.8 hPa 0 mm - - -
1787714669 26.67° C 100% 1017.8 hPa 0 mm - - -
1787714475 26.11° C 100% 1017.8 hPa 0 mm - - -

* Rain latest hour (hover to see other rain measurements)
** Current wind speed in m/s (hover to see current wind gust speed)